Date,TemperatureHighF,TemperatureAvgF,TemperatureLowF,DewpointHighF,DewpointAvgF,DewpointLowF,HumidityHigh,HumidityAvg,HumidityLow,PressureMaxIn,PressureMinIn,WindSpeedMaxMPH,WindSpeedAvgMPH,GustSpeedMaxMPH,PrecipitationSumIn
2013-2-1,64,50,42,51,45,39,92,84,56,30.16,30.04,13,4,13,0.00
2013-2-2,56,49,44,51,46,42,93,90,78,30.20,30.13,9,3,9,0.00
2013-2-3,57,48,42,48,44,40,92,87,69,30.17,30.05,13,3,13,0.00
2013-2-4,57,47,38,51,44,36,95,91,80,30.10,29.97,12,3,12,0.01
2013-2-5,54,48,42,48,44,40,92,87,78,30.07,29.99,9,4,9,0.00
2013-2-6,56,46,38,48,42,35,92,84,71,30.12,30.04,10,4,10,0.01
2013-2-7,56,46,38,48,41,36,91,83,57,30.11,29.93,18,5,18,0.09
2013-2-8,54,45,38,42,38,35,93,80,54,29.93,29.86,17,4,17,0.03
2013-2-9,54,43,34,45,38,31,90,81,63,30.02,29.91,13,5,13,0.00
2013-2-10,54,44,34,48,38,30,92,82,65,30.04,29.93,13,5,13,0.00
2013-2-11,55,45,36,46,39,33,91,80,60,30.16,29.98,12,4,12,0.00
2013-2-12,54,46,39,47,40,34,88,79,58,30.28,30.16,13,5,13,0.00
2013-2-13,58,46,37,51,42,34,91,86,76,30.26,30.13,12,4,12,0.00
2013-2-14,64,53,41,51,45,37,90,74,54,30.15,30.04,12,4,12,0.00
2013-2-15,73,57,44,47,42,37,80,59,28,30.16,30.09,8,4,8,0.00
2013-2-16,70,56,46,51,44,38,92,66,34,30.12,29.95,12,4,12,0.00
2013-2-17,57,49,43,49,45,41,93,87,72,29.99,29.89,9,4,9,0.00
2013-2-18,51,47,42,45,42,38,92,82,65,29.98,29.91,12,4,12,0.01
2013-2-19,50,44,36,46,40,33,91,85,70,29.92,29.69,18,4,18,0.30
2013-2-20,61,44,33,46,37,31,92,78,40,30.00,29.75,17,6,17,0.00
2013-2-21,60,48,37,42,36,32,90,67,35,30.10,29.98,20,6,20,0.00
2013-2-22,56,46,36,49,41,32,88,81,72,30.18,30.10,14,5,14,0.00
2013-2-23,61,51,42,43,39,32,90,67,36,30.17,30.06,21,7,21,0.00
2013-2-24,60,50,40,47,34,24,80,55,39,30.18,30.06,25,6,25,0.00
2013-2-25,58,47,36,49,40,31,88,77,62,30.19,30.07,9,4,9,0.00
2013-2-26,56,48,38,48,41,34,91,80,57,30.13,30.02,12,4,12,0.00
2013-2-27,63,49,39,50,41,33,88,76,38,30.29,30.12,14,4,14,0.00
2013-2-28,59,50,42,52,46,39,92,86,70,30.37,30.27,12,3,12,0.00